Regional Weather Roundup
Issued by NWS Northern Indiana

Home | Current Version | Previous Version | Text Only | Print | Product List | Glossary Off
Versions: 1 2 3 4 5 6 7 8 9 10 11 12 13 14 15 16 17 18 19 20 21 22 23 24 25 26 27 28 29 30 31 32 33 34 35 36 37 38 39 40 41 42 43 44 45 46 47 48 49 50

000
ASUS43 KIWX 191710
RWRIWX

KIWX WEATHER ROUNDUP
NATIONAL WEATHER SERVICE NORTHERN INDIANA
100 PM EDT SAT APR 19 2014

NOTE: "FAIR" INDICATES FEW OR NO CLOUDS BELOW 12,000 FEET WITH NO
SIGNIFICANT WEATHER AND/OR OBSTRUCTIONS TO VISIBILITY.

* THESE STATIONS ARE NOT UNDER NWS QUALITY CONTROL. THEY ALSO MAY NOT
  REPORT WEATHER SUCH AS PRECIPITATION OR FOG.

INZ001>027-191800-
NORTHERN INDIANA

CITY           SKY/WX    TMP DP  RH WIND       PRES   REMARKS
GARY*          MOSUNNY   54  39  58 NE9       30.35F
VALPARAISO     SUNNY     60  35  39 E13       30.35F
MICHIGAN CITY* SUNNY     59  32  36 SE8G17    30.35F
LAPORTE*       SUNNY     57  36  45 SE13      30.36F
SOUTH BEND     SUNNY     57  36  45 E8G18     30.38F
ELKHART*       SUNNY     55  36  47 SE8       30.39F
GOSHEN         SUNNY     56  37  49 E10       30.38F
MONTICELLO*    SUNNY     58  41  53 E10       30.34F
LOGANSPORT*    SUNNY     59  36  41 E13       30.36F
ROCHESTER*     SUNNY     59  37  44 SE12      30.37F
WARSAW*        SUNNY     54  37  54 SE10G16   30.37F
ANGOLA*        SUNNY     52  36  54 E14       30.39F
FORT WAYNE     MOSUNNY   54  37  52 E16G22    30.39F
HUNTINGTON*    FAIR      54  38  53 E12G18    30.38S
PERU/GRISSOM   SUNNY     58  41  54 E15       30.35F
MARION*        SUNNY     56  38  51 E12G17    30.36F

$$
INZ028>050-191800-
CENTRAL INDIANA

CITY           SKY/WX    TMP DP  RH WIND       PRES   REMARKS
LAFAYETTE      SUNNY     60  41  49 E13       30.33F
KOKOMO*          N/A    N/A N/A N/A MISG        N/A
MUNCIE*        SUNNY     58  40  51 E14       30.35F
INDIANAPOLIS   MOSUNNY   62  40  44 E15       30.32F

$$
MIZ043>046-050>051-056>058-064>065-071>073-077>080-191800-
SOUTHWEST LOWER MICHIGAN

CITY           SKY/WX    TMP DP  RH WIND       PRES   REMARKS
BATTLE CREEK   SUNNY     53  29  39 E8        30.40F
BENTON HARBOR  SUNNY     57  36  45 E13       30.37F
COLDWATER*     SUNNY     54  30  40 E7        30.39F
HILLSDALE*     SUNNY     53  28  38 E13       30.39F
HOLLAND        SUNNY     55  33  43 E13       30.39F
GRAND RAPIDS   MOSUNNY   52  31  44 E17G23    30.41F
KALAMAZOO      SUNNY     55  32  41 E7        30.40F
STURGIS*       SUNNY     54  36  50 E10       30.38F
THREE RIVERS*  FAIR      55  34  44 SE9       30.39F

$$
OHZ001>008-015>018-024>025-191800-
NORTHWEST OHIO

CITY           SKY/WX    TMP DP  RH WIND       PRES   REMARKS
WAUSEON*       FAIR      52  27  37 E15       30.41F
DEFIANCE       SUNNY     54  34  46 NE13      30.42F
FINDLAY        SUNNY     53  33  46 NE16      30.40F
TOLEDO EXPRESS SUNNY     52  30  43 E16G23    30.43F
TOLEDO METCALF SUNNY     50  33  52 E13       30.44F
LIMA           SUNNY     56  38  50 NE12      30.38F

$$
&&



USA.gov is the U.S. government's official web portal to all federal, state and local government web resources and services.